Location: Fort Wayne
(41.1310°N, 85.1290°W)
Time: 08:15:36
(UTC-04:00)

Cosmos 1953 - Visible Passes

Search period start: 25 September 2016 00:00
Search period end: 05 October 2016 00:00
Orbit: 541 x 562 km, 82.5° (Epoch: 25 September)

Date Brightness Start Highest point End Pass type
(mag) Time Alt. Az. Time Alt. Az. Time Alt. Az.
25 Sep 5.9 06:56:19 10° NE 06:57:46 12° ENE 06:59:12 10° E visible
25 Sep 2.2 20:50:39 10° S 20:54:37 70° E 20:58:35 10° NNE visible
26 Sep 5.7 06:52:08 10° NE 06:54:01 13° ENE 06:55:53 10° E visible
26 Sep 2.2 20:46:50 10° S 20:50:48 79° E 20:54:48 10° N visible
27 Sep 5.6 06:48:02 10° NE 06:50:14 14° ENE 06:52:27 10° ESE visible
27 Sep 2.2 20:43:01 10° S 20:47:00 88° E 20:51:00 10° N visible
28 Sep 5.5 06:44:00 10° NNE 06:46:29 16° ENE 06:48:58 10° ESE visible
28 Sep 2.3 20:39:13 10° S 20:43:11 82° W 20:47:11 10° N visible
29 Sep 5.5 06:40:00 10° NNE 06:42:43 17° ENE 06:45:26 10° ESE visible
29 Sep 2.5 20:35:25 10° SSW 20:39:23 73° W 20:43:23 10° N visible
30 Sep 5.4 06:36:02 10° NNE 06:38:57 19° ENE 06:41:52 10° ESE visible
30 Sep 2.7 20:31:39 10° SSW 20:35:36 65° W 20:39:33 10° N visible
01 Oct 5.2 06:32:05 10° NNE 06:35:11 21° ENE 06:38:17 10° SE visible
01 Oct 3.0 20:27:52 10° SSW 20:31:47 58° W 20:35:43 10° N visible
02 Oct 5.0 06:28:09 10° NNE 06:31:25 23° ENE 06:34:40 10° SE visible
02 Oct 3.2 20:24:07 10° SSW 20:28:00 51° W 20:31:53 10° N visible
03 Oct 4.8 06:24:14 10° NNE 06:27:38 26° ENE 06:31:01 10° SE visible
03 Oct 3.5 20:20:23 10° SSW 20:24:12 46° W 20:28:02 10° N visible
04 Oct 4.6 06:20:20 10° NNE 06:23:51 28° ENE 06:27:22 10° SE visible
04 Oct 3.8 20:16:38 10° SSW 20:20:24 41° WNW 20:24:11 10° N visible
